Regional Weather Roundup
Issued by NWS Newport/Morehead, NC

Current Version | Previous Version | Text Only | Print | Product List | Glossary On
Versions: 1 2 3 4 5 6 7 8 9 10 11 12 13 14 15 16 17 18 19 20 21 22 23 24 25 26 27 28 29 30 31 32 33 34 35 36 37 38 39 40 41 42 43 44 45 46 47 48 49 50
000
ASUS42 KMHX 191722
RWRMHX
WEATHER ROUNDUP FOR EASTERN NORTH CAROLINA
NATIONAL WEATHER SERVICE NEWPORT/MOREHEAD CITY NC
100 PM EDT SAT APR 19 2014

NOTE: "FAIR" INDICATES FEW OR NO CLOUDS BELOW 12,000 FEET
WITH NO SIGNIFICANT WEATHER AND/OR OBSTRUCTIONS TO VISIBILITY

NCZ015>017-031-032-045>047-102-103-191800-
NORTH COAST

CITY           SKY/WX    TMP DP  RH WIND       PRES   REMARKS
EDENTON        DRIZZLE   50  46  84 NE8       30.19F
ELIZABETH CITY CLOUDY    51  43  74 NE17G28   30.20F
KITTY HAWK     LGT RAIN  49  46  92 NE10G20   30.17S
MANTEO         LGT RAIN  49  47  92 E20G28    30.17F

$$

NCZ045>047-081-094-103-104-191800-
CENTRAL COAST

CITY           SKY/WX    TMP DP  RH WIND       PRES   REMARKS
FRISCO         LGT RAIN  54  54 100 NE14G29   30.10S
SWANQUARTER      N/A     52 N/A N/A NE9G26    30.09S

$$

NCZ095-097-098-100-101-191800-
SOUTHERN COAST

CITY           SKY/WX    TMP DP  RH WIND       PRES   REMARKS
BEAUFORT       LGT RAIN  56  54  93 NE16G30   30.05F
CEDAR ISLAND     N/A     55 N/A N/A NE26G41   30.12S
JACKSONVILLE   LGT RAIN  57  57 100 NE17G24   30.06S
NEWPORT          N/A     55  54  94 N15G25      N/A
PINEY ISLAND   CLOUDY    56  55  97 NE21G35   30.08F
WILMINGTON     CLOUDY    57  54  89 N15       30.03F FOG


$$

NCZ011>013-027>030-043-044-078>080-089-090>093-098-191800-
COASTAL PLAIN

CITY           SKY/WX    TMP DP  RH WIND       PRES   REMARKS
AHOSKIE        CLOUDY    50  45  83 N8G16     30.22R
CLINTON        DRIZZLE   51  51  99 NE10G21   30.11F
ELIZABETHTOWN  CLOUDY    52  52 100 NE6       30.08F
GOLDSBORO      CLOUDY    50  50 100 N9        30.10F
GREENVILLE     LGT RAIN  50  46  87 NE13G18   30.18S
HAVELOCK       CLOUDY    55  51  86 NE20G32   30.08F
KENANSVILLE    CLOUDY    50  49  95 NE8       30.11F
KINSTON        CLOUDY    50  48  93 NE14G24   30.14S
NEW BERN       CLOUDY    55  51  86 NE15G26   30.10F
RICHLANDS      CLOUDY    54  54 100 N9        30.10R
ROANOKE RAPIDS NOT AVBL
ROCKY MOUNT    CLOUDY    50  46  86 NE12G20   30.18F
WASHINGTON     CLOUDY    50  46  85 NE9G18    30.16R
WHITEVILLE     CLOUDY    53  51  92 NE9       30.05F

$$

AMZ130-135-150-152-154-156-158-170-250-252-270-ANZ085-086-088-633-658-670-191800-
MARINE OBSERVATIONS

STATION/POSITION TIME  TEMP    WIND        PRES    WAVE   SWELL
                       AIR SEA DIR/SP/G            HT/PER HT/PER
                 (UTC) (F)     (DEG/KT/KT) (MB)    (FT/S) (FT/S)
CHESAPEAKE LIGHT 1700   46      50/ 17/ 17 1024.5
BUOY 44014       1700   51 49   20/ 16/ 17 1023.0    7/10   5/10
DUCK             1700   48 49   40/ 21/ 25 1021.2
2E DUCK          1700      47                N/A     6/11   2/11
OREGON INLET     1700   51 51   30/ 18/ 23 1020.7
BUOY 44095       1700      48                N/A     8/11   3/11
HATTERAS CG      1700   55 56   20/ 13/ 23 1019.5
DIAMOND BUOY     NOT AVBL
CAPE LOOKOUT     1700   59      30/ 30/ 38 1016.7
BEAUFORT LAB     1700   56 58   30/ 14/ 24 1016.6
30 SE NEW RIVER  1700   61 66   40/ 25/ 31 1016.0    8/ 7   2/10
5 SE WRIGHTSVILL 1700   59 59   50/ 21/ 25 1016.3
FRYING PAN BUOY  1700   65 68   50/ 21/ 25 1013.4    7/ 7   3/10
BUOY 41001       NOT AVBL
BUOY 41002       NOT AVBL
BUOY 41004       NOT AVBL

$$



USA.gov is the U.S. government's official web portal to all federal, state and local government web resources and services.